Weather Roundup
Issued by NWS

Home | Current Version | Previous Version | Text Only | Print | Product List | Glossary On
Versions: 1 2 3 4 5 6 7 8 9 10 11 12 13 14 15 16 17 18 19 20 21 22 23 24 25 26 27 28 29 30 31 32 33 34 35 36 37 38 39 40 41 42 43 44 45 46 47 48 49 50
000
NZUS93 KARX 271510
HRRWXR

CURRENT HOURLY OBSERVATIONS ACROSS
MUCH OF THE UPPER MISSISSIPPI VALLEY
NATIONAL WEATHER SERVICE LA CROSSE WI
1000 AM CDT WED AUG 27 2014


...SOUTHEAST MINNESOTA...


CITY           SKY/WX    TMP DP  RH WIND       PRES   REMARKS
ROCHESTER      CLOUDY    66  56  70 NE7       30.24R
ROCHESTER/MAYO CLOUDY    65  54  66 NE5       30.22S
WINONA         CLOUDY    70  59  68 E3        30.21S
AUSTIN         PTSUNNY   66  57  72 E5        30.21S
ALBERT LEA     PTSUNNY   66  57  72 E7        30.21S
DODGE CENTER   CLOUDY    64  57  77 E7        30.23R
PRESTON        MOSUNNY   66  61  83 CALM      30.23R
OWATONNA       CLOUDY    64  55  72 E5        30.23R
FARIBAULT      PTSUNNY   70  54  56 E3        30.23R
$$

...ELSEWHERE IN MINNESOTA...


CITY           SKY/WX    TMP DP  RH WIND       PRES   REMARKS
MINNEAPOLIS    MOSUNNY   67  54  63 E7        30.22R
INTNL FALLS    CLOUDY    58  52  80 CALM      30.19S
DULUTH         SUNNY     62  50  64 NW3       30.22R
RED WING       MOSUNNY   70  55  60 SE7       30.21R
REDWOOD FALLS  PTSUNNY   67  57  70 E9        30.22R
MANKATO        PTSUNNY   66  54  63 SE9       30.23R
WORTHINGTON    CLOUDY    63  59  88 E6        30.22S
FAIRMONT       CLOUDY    63  55  77 E5        30.21R
$$

...SOUTHWEST WISCONSIN...


CITY           SKY/WX    TMP DP  RH WIND       PRES   REMARKS
LA CROSSE      MOSUNNY   72  56  57 E5        30.20R
PRAIRIE DU CHI MOSUNNY   69  56  64 CALM      30.19R
BOSCOBEL       MOSUNNY   71  58  63 CALM      30.20R
LONE ROCK      MOSUNNY   73  58  59 E3        30.19R
PLATTEVILLE    MOSUNNY   70  58  65 E7        30.20R
FORT MC COY    SUNNY     68  55  62 CALM      30.22R
CAMP DOUGLAS   MOSUNNY   68  57  68 CALM      30.21S
VIROQUA        FAIR      68  56  66 N6        30.21S
WIS DELLS      SUNNY     67  56  67 N3        30.20R
$$

...ELSEWHERE IN WISCONSIN...


CITY           SKY/WX    TMP DP  RH WIND       PRES   REMARKS
MILWAUKEE      PTSUNNY   69  63  81 NE9       30.16S
MADISON        PTSUNNY   69  59  70 CALM      30.18S
GREEN BAY      MOSUNNY   67  55  65 CALM      30.19S
EAU CLAIRE     MOSUNNY   66  55  67 NE6       30.21R
BLACK RVR FLS  FAIR      67  55  64 NE3       30.21R
MEDFORD        MOSUNNY   62  51  68 NW7       30.21F
WAUSAU         SUNNY     64  53  67 MISG      30.19F
WIS RAPIDS     SUNNY     68  54  60 VRB3      30.22R
MARSHFIELD     MOSUNNY   68  54  60 NW5       30.21S
RICE LAKE      SUNNY     63  50  63 NE7       30.24S
$$

...NORTHEAST IOWA...


CITY           SKY/WX    TMP DP  RH WIND       PRES   REMARKS
WATERLOO       MOSUNNY   71  57  61 E7        30.18R
DUBUQUE        MOSUNNY   69  59  70 N6        30.19R
DECORAH        MOSUNNY   66  57  72 VRB5      30.19S
MASON CITY     CLOUDY    67  56  67 SE8       30.23R
CHARLES CITY   PTSUNNY   68  57  68 E8        30.22R
OELWEIN        MOSUNNY   70  59  68 SE7       30.21R
$$

...ELSEWHERE IN IOWA...


CITY           SKY/WX    TMP DP  RH WIND       PRES   REMARKS
DES MOINES     CLOUDY    71  63  75 SE7       30.15S
IOWA CITY      CLOUDY    69  61  75 E7        30.17S
FORT DODGE     PTSUNNY   68  61  77 SE5       30.20R
MARSHALLTOWN   MOSUNNY   69  62  78 E9        30.17R
CEDAR RAPIDS   CLOUDY    69  62  78 E8        30.17R
$$

...NORTHERN ILLINOIS...


CITY           SKY/WX    TMP DP  RH WIND       PRES   REMARKS
CHICAGO-OHARE  PTSUNNY   75  59  57 NE7       30.14S
DUPAGE         MOSUNNY   76  64  66 VRB3      30.15R
CHICAGO-MIDWAY PTSUNNY   76  63  64 E5        30.14S
MOLINE         PTSUNNY   74  61  63 E7        30.15R
ROCKFORD       PTSUNNY   74  59  59 E3        30.18R
STERLING       PTSUNNY   72  63  73 E7        30.16S
PEORIA         MOSUNNY   80  68  66 SE6       30.14R
$$

NOTE: "FAIR" INDICATES FEW OR NO CLOUDS BELOW 12,000 FEET WITH NO
SIGNIFICANT WEATHER AND/OR OBSTRUCTIONS TO VISIBILITY. WIND
SPEEDS ARE IN MILES-PER-HOUR.



USA.gov is the U.S. government's official web portal to all federal, state and local government web resources and services.